Voltar ao catálogo

STARLINK-36326

AtivoComunicaçõesVLEO
NORAD 68519·PAYLOAD·🇺🇸 United States

Lançado Mar 30, 2026 de Cape Canaveral Space Force Station

Loading…

Próximas Passagens (próximas 24 horas)

TLE

AtualizadoSource: CelesTrak SupGP

Época: Sep 14, 2026, 16:11 UTC

1 68519C 26068M   26257.67479167  .00025129  00000+0  74296-3 0  2576
2 68519  53.1591 326.8799 0001281  79.1905 288.6301 15.34355775    16

Acompanhe STARLINK-36326 em tempo real com AllMySat

Download on the App Store